Torna al catalogo

STARLINK-30706

AttivoComunicazioniVLEO
NORAD 57947·PAYLOAD·🇺🇸 United States

Lanciato Sep 25, 2023 da Vandenberg Space Force Base

Loading…

Prossimi Passaggi (prossime 24 ore)

TLE

AggiornatoSource: CelesTrak SupGP

Epoca: Sep 14, 2026, 22:29 UTC

1 57947C 23148N   26257.93729167  .00013332  00000+0  39377-3 0  2576
2 57947  53.1587 221.4375 0001662  93.3142 158.9432 15.34393556    11

Traccia STARLINK-30706 in tempo reale con AllMySat

Download on the App Store